Location: Unspecified
(46.0328°N, 0.0000°E)
Time: 14:20:52
(UTC+00:00)

STEP CUBE LAB-II - Visible Passes

Search period start: 04 April 2026 00:00
Search period end: 14 April 2026 00:00
Orbit: 678 x 688 km, 98.2° (Epoch: 29 March)

Date Brightness Start Highest point End Pass type
(mag) Time Alt. Az. Time Alt. Az. Time Alt. Az.
4 Apr ? 02:06:50 39° NNE 02:06:50 39° NNE 02:10:04 10° N visible
4 Apr ? 03:45:18 14° WNW 03:45:18 14° WNW 03:46:24 10° NW visible
5 Apr ? 01:05:20 16° ENE 01:05:20 16° ENE 01:08:13 10° NNE visible
5 Apr ? 02:43:47 39° NNW 02:43:47 39° NNW 02:46:50 10° NNW visible
6 Apr ? 01:42:17 31° NE 01:42:17 31° NE 01:45:50 10° N visible
6 Apr ? 03:20:44 24° WNW 03:20:44 24° WNW 03:23:08 10° NNW visible
7 Apr ? 00:41:09 10° ENE 00:41:42 10° NE 00:42:16 10° NE visible
7 Apr ? 02:19:12 52° N 02:19:12 52° N 02:22:52 10° N visible
7 Apr ? 03:57:40 12° WNW 03:57:40 12° WNW 03:58:28 10° WNW visible
8 Apr ? 01:17:41 21° ENE 01:17:55 21° ENE 01:21:22 10° NNE visible
8 Apr ? 02:56:09 40° NW 02:56:09 40° NW 02:59:29 10° NNW visible
9 Apr ? 01:54:37 42° ENE 01:54:37 42° ENE 01:58:43 10° N visible
9 Apr ? 03:33:05 21° WNW 03:33:05 21° WNW 03:35:33 10° NW visible
10 Apr ? 00:53:06 12° ENE 00:54:13 13° ENE 00:56:24 10° NNE visible
10 Apr ? 02:31:34 66° NNW 02:31:34 66° NNW 02:35:36 10° NNW visible
11 Apr ? 01:30:02 26° ENE 01:30:29 26° ENE 01:34:22 10° N visible
11 Apr ? 03:08:30 36° WNW 03:08:30 36° WNW 03:12:03 10° NNW visible
12 Apr ? 02:06:58 55° ENE 02:06:58 55° ENE 02:11:32 10° N visible
12 Apr ? 03:45:26 17° WNW 03:45:26 17° WNW 03:47:49 10° NW visible
13 Apr ? 01:05:27 15° E 01:06:45 17° ENE 01:09:42 10° NNE visible
13 Apr ? 02:43:55 64° WNW 02:43:55 64° WNW 02:48:16 10° NNW visible
